FENGYUN 1C DEB, 31742

Orbit data source: Space-Track

FENGYUN 1C DEB, 31742 is space debris in SSO originally from a launch on Mon, 10 May 1999 UTC launched from the Taiyaun Space Center, China (TSC). Fengyun 1C debris stems from the Chinese weather satellite Fengyun-1C, which was intentionally destroyed by a Chinese anti-satellite missile in 2007. This event dramatically increased the amount of space debris, with thousands of trackable fragments posing hazards to satellites and human spaceflight. The Fengyun 1C debris cloud has become a focal point in discussions about space sustainability and the need for international regulations to prevent the creation of new debris.

Loading next visibility...
Identifier
31742, 1999-025CER
Orbit
SSO
Country
Flag of CNCN / PRC
Related business
Manufacturer
Unknown
Mission
Spacecraft
Bus & Motor
Unknown
Mass
Unknown
Launch date (UTC)
1999-05-10 (27 years ago)
Launch vehicle
Unknown
Launch site
Taiyaun Space Center, China (TSC)
Object type
Payload
Rocket body
Debris
Shape & HBR
Unknown shape, 0.1 m
Radar Cross Section
Small (<0.1 m²)

Expand to show TLE details & history
Last TLE update: 10 hours ago

TLE from 10 hours ago
0 FENGYUN 1C DEB
1 31742U 99025CER 26124.07380051  .00001352  00000-0  42760-3 0  9994
2 31742  98.9052 354.7152 0074388 267.8650  91.4017 14.40380492986980
Epoch: 2026-05-04T01:46Z
TLE epoch observation values (Epoch: 2026-05-04T01:46:16.364Z)
Latitude
-0.00005°
Longitude
106.1788°
Altitude
761.871 km
Speed
7.473 km/s
True Right ascension
23h 38m 51s
True Declination
0° 00' 00"
Sunlit
Object was in daylight at epoch
Visualization orbit readout
Latitude
Unknown
Longitude
Unknown
Altitude
Unknown
Speed
Unknown
Apparent Right ascension
Unknown
Apparent Declination
Unknown
Sunlit
N/A
Visualization observer readout
Local Sidereal Time
19:07:44
Azimuth
Unknown
Elevation
Unknown
Doppler factor
Unknown
Orbital elements
Apogee altitude
807.44 km
Perigee altitude
701.325 km
Semi-major axis
7,132.519 km
Eccentricity
0.00744
Inclination
98.9052°
RAAN
354.7152°
Arg. of periapsis
267.865°
True anomaly
92.25364°
Mean anomaly
91.4017°
Eccentric anomaly
91.8277°
Mean motion
3.60312 °/min
Orbital period
99.91 mins
BSTAR
0.0004276
Loading maneuver chart data...
Computing Atmospheric mass density...

Documentation

Showing up to 5 results
|